Location: Aetna Mine
(37.6183°N, 107.6045°W)
Time: 11:00:54
(UTC+00:00)

Daily predictions for brighter satellites

Satellite Brightness Start Highest point End
(mag) Time Altitude Azimuth Time Altitude Azimuth Time Altitude Azimuth
SAR-Lupe-1 3.9 12:00:01 10° S 12:03:34 81° W 12:07:08 10° NNW
Cosmos 1484 Rocket 2.8 12:01:05 10° N 12:05:02 66° WNW 12:08:59 10° SSW
SL-8 R/B 4.5 12:05:37 10° NW 12:10:16 50° NNE 12:14:55 10° ESE
Cosmos 44 Rocket 3.8 12:07:22 10° SSW 12:11:57 59° ESE 12:16:41 10° NE
Meteor 1-4 Rocket 3.7 12:10:04 11° SW 12:12:31 22° WNW 12:15:18 10° NNW
Meteor 1-11 Rocket 3.8 12:07:41 10° NNW 12:13:23 60° W 12:18:53 10° S
Meteor 1-31 Rocket 2.8 12:11:46 10° N 12:15:32 58° WNW 12:19:18 10° SSW
Cosmos 1437 Rocket 3.8 12:11:56 10° S 12:15:34 48° E 12:19:14 10° NNE
Cosmos 1898 Rocket 3.5 12:10:31 10° NNW 12:15:46 78° WSW 12:21:03 10° SSE
Cosmos 2208 Rocket 4.3 12:11:52 10° S 12:17:07 74° ESE 12:22:20 10° NNE
COSMO-SKYMED 1 3.0 12:16:35 10° SSE 12:20:52 67° ENE 12:25:11 10° N
ADEOS 4.1 12:17:41 10° N 12:22:31 39° WNW 12:27:20 10° SW
USA 32 4.4 12:18:22 10° NNW 12:23:17 42° W 12:28:10 10° SSW
Lacrosse 5 4.0 12:21:28 10° NW 12:23:29 12° NNW 12:25:31 10° N
Meteor 1-27 Rocket 4.2 12:17:55 10° SSW 12:23:32 45° WNW 12:29:13 10° N
ERS-2 3.7 12:22:59 10° SW 12:25:11 15° W 12:27:24 10° WNW
Cosmos 2100 Rocket 4.1 12:21:17 10° NNW 12:27:35 64° W 12:33:50 10° S
Meteor 2-20 4.4 12:22:03 10° SSW 12:28:11 76° W 12:34:19 10° N
SJ-12 3.9 12:24:51 10° N 12:28:59 72° WNW 12:33:04 10° SSW
Cosmos 1802 Rocket 4.0 12:22:52 10° N 12:29:05 84° W 12:35:21 10° S
Cosmos 858 Rocket 4.5 12:24:03 10° NNW 12:29:16 83° WSW 12:34:27 10° SSE
